Location: Gettysburg
(39.8310°N, 77.2310°W)
Time: 16:07:34
(UTC-04:00)

Envisat - Pass Details

Date: 02 June 2023
Orbit: 763 x 764 km, 98.2° (Epoch: 24 September)

Event Time Altitude Azimuth Distance (km) Brightness Sun altitude
Rises 04:06:24 0° 26° (NNE) 3,235 7.8 -15.2°
Reaches altitude 10° 04:09:05 10° 39° (NE) 2,304 6.9 -14.9°
Maximum altitude 04:13:16 26° 95° (E) 1,487 4.9 -14.3°
Drops below altitude 10° 04:17:26 10° 150° (SSE) 2,292 5.3 -13.7°
Sets 04:20:05 0° 163° (SSE) 3,213 5.9 -13.4°
